This is the latest recevied weather packets stored in our database for station/object WZ9ZZZ-1. If no packets are shown the sender has not sent any weather packets the latest 1 day(s).
| Time | Temp. | Humidity | Pressure | Rain* | Wind** | Luminosity | Snow |
|---|---|---|---|---|---|---|---|
| 1778013418 | 27.22° C | 82% | 1012.4 hPa | 0 mm | 3.13 m/s, 257° | 182 W/m² | - |
| 1778013114 | 27.22° C | 82% | 1012.3 hPa | 0 mm | 2.24 m/s, 174° | 211 W/m² | - |
| 1778012810 | 27.22° C | 82% | 1012.6 hPa | 0 mm | 2.24 m/s, 266° | 253 W/m² | - |
| 1778012506 | 27.22° C | 81% | 1012.6 hPa | 0 mm | 3.13 m/s, 253° | 268 W/m² | - |
| 1778012203 | 27.22° C | 82% | 1012.8 hPa | 0 mm | 3.13 m/s, 273° | 259 W/m² | - |
| 1778011901 | 27.78° C | 81% | 1012.8 hPa | 0 mm | 0.89 m/s, 188° | 219 W/m² | - |
| 1778011599 | 27.78° C | 81% | 1012.8 hPa | 0 mm | 1.79 m/s, 253° | 312 W/m² | - |
| 1778011296 | 27.22° C | 81% | 1012.9 hPa | 0 mm | 2.24 m/s, 240° | 379 W/m² | - |
| 1778010991 | 27.22° C | 82% | 1012.6 hPa | 0 mm | 3.13 m/s, 249° | 226 W/m² | - |
| 1778010689 | 27.22° C | 81% | 1012.8 hPa | 0 mm | 2.24 m/s, 227° | 163 W/m² | - |
| 1778010386 | 27.22° C | 82% | 1012.9 hPa | 0 mm | 2.24 m/s, 163° | 291 W/m² | - |
| 1778010082 | 27.22° C | 81% | 1013 hPa | 0 mm | 2.68 m/s, 178° | 262 W/m² | - |
| 1778009779 | 27.22° C | 82% | 1012.7 hPa | 0 mm | 2.24 m/s, 234° | 233 W/m² | - |
| 1778009476 | 27.22° C | 81% | 1012.7 hPa | 0 mm | 3.13 m/s, 280° | 262 W/m² | - |
| 1778009175 | 27.22° C | 82% | 1012.7 hPa | 0 mm | 1.34 m/s, 259° | 295 W/m² | - |
| 1778008872 | 27.22° C | 82% | 1013 hPa | 0 mm | 3.13 m/s, 215° | 403 W/m² | - |
| 1778008570 | 26.67° C | 83% | 1013 hPa | 0 mm | 2.24 m/s, 226° | 278 W/m² | - |
| 1778008268 | 26.67° C | 84% | 1013.1 hPa | 0 mm | 1.34 m/s, 246° | 193 W/m² | - |
| 1778007963 | 26.67° C | 84% | 1013 hPa | 0 mm | 1.34 m/s, 218° | 237 W/m² | - |
| 1778007658 | 26.67° C | 85% | 1013 hPa | 0 mm | 2.68 m/s, 227° | 177 W/m² | - |
| 1778007355 | 26.11° C | 85% | 1012.9 hPa | 0 mm | 1.79 m/s, 236° | 198 W/m² | - |
| 1778007051 | 26.11° C | 85% | 1013.2 hPa | 0 mm | 1.34 m/s, 181° | 162 W/m² | - |
| 1778006748 | 26.67° C | 84% | 1013.1 hPa | 0 mm | 2.24 m/s, 210° | 66 W/m² | - |
| 1778006445 | 26.67° C | 84% | 1013.4 hPa | 0 mm | 1.79 m/s, 227° | 185 W/m² | - |
| 1778006142 | 26.67° C | 84% | 1013.2 hPa | 0 mm | 2.24 m/s, 215° | 188 W/m² | - |
* Rain latest hour (hover to see other rain measurements)
** Current wind speed in m/s (hover to see current wind gust speed)